When you browse on this site, cookies collect data to enhance your experience and personalize the content and advertising you see.
Visit our Privacy Policy to learn more. By continuing to use the site, you agree to this use of cookies and data.
  • In Spain
  • List of Countries
  • For 7 days
  • Water Temperature
  • Weather Map
  • Weather Widgets
  • user-avatar
    Login

    Hourly Weather Astana

    Today, 22 August, Thursday

    Time Temperature Precipitation Wind Pressure Humidity
    00:00 +13°C° 0 mm 5 mps 726 mmHg 85%
    01:00 +13°C° 0 mm 5 mps 726 mmHg 85%
    02:00 +13°C° 0 mm 4 mps 726 mmHg 84%
    03:00 +12°C° 0 mm 5 mps 726 mmHg 84%
    04:00 +12°C° 0 mm 5 mps 726 mmHg 84%
    05:00 +10°C° 0 mm 5 mps 727 mmHg 84%
    06:00 +11°C° 0 mm 6 mps 727 mmHg 78%
    07:00 +13°C° 0 mm 6 mps 727 mmHg 72%
    08:00 +14°C° 0 mm 7 mps 728 mmHg 66%
    09:00 +16°C° 0 mm 6 mps 728 mmHg 60%
    10:00 +17°C° 0 mm 6 mps 728 mmHg 54%
    11:00 +19°C° 0 mm 6 mps 729 mmHg 48%
    12:00 +19°C° 0 mm 6 mps 729 mmHg 47%
    13:00 +19°C° 0 mm 6 mps 728 mmHg 45%
    14:00 +20°C° 0 mm 5 mps 728 mmHg 44%
    15:00 +20°C° 0 mm 5 mps 729 mmHg 45%
    16:00 +19°C° 0 mm 5 mps 729 mmHg 46%
    17:00 +19°C° 0 mm 4 mps 730 mmHg 47%
    18:00 +18°C° 0 mm 4 mps 730 mmHg 55%
    19:00 +17°C° 0 mm 3 mps 730 mmHg 62%
    20:00 +15°C° 0 mm 2 mps 730 mmHg 70%
    21:00 +15°C° 0 mm 2 mps 730 mmHg 74%
    22:00 +14°C° 0 mm 2 mps 730 mmHg 79%
    23:00 +13°C° 0 mm 2 mps 731 mmHg 84%

    Tomorrow, 23 August, Friday

    Time Temperature Precipitation Wind Pressure Humidity
    00:00 +13°C° 0 mm 2 mps 731 mmHg 86%
    01:00 +13°C° 0 mm 2 mps 731 mmHg 88%
    02:00 +12°C° 0 mm 2 mps 731 mmHg 90%
    03:00 +12°C° 0 mm 2 mps 731 mmHg 91%
    04:00 +12°C° 0 mm 2 mps 732 mmHg 91%
    05:00 +12°C° 0 mm 2 mps 732 mmHg 92%
    06:00 +13°C° 0 mm 2 mps 733 mmHg 85%
    07:00 +15°C° 0 mm 2 mps 733 mmHg 79%
    08:00 +16°C° 0 mm 2 mps 733 mmHg 72%
    09:00 +18°C° 0 mm 2 mps 733 mmHg 64%
    10:00 +19°C° 0 mm 2 mps 734 mmHg 57%
    11:00 +20°C° 0 mm 2 mps 734 mmHg 49%
    12:00 +21°C° 0 mm 2 mps 734 mmHg 47%
    13:00 +23°C° 0 mm 2 mps 734 mmHg 45%
    14:00 +24°C° 0 mm 2 mps 733 mmHg 42%
    15:00 +24°C° 0 mm 2 mps 734 mmHg 42%
    16:00 +24°C° 0 mm 2 mps 734 mmHg 42%
    17:00 +24°C° 0 mm 2 mps 734 mmHg 42%
    18:00 +21°C° 0 mm 2 mps 734 mmHg 46%
    19:00 +20°C° 0 mm 2 mps 734 mmHg 49%
    20:00 +20°C° 0 mm 1 mps 734 mmHg 52%
    21:00 +19°C° 0 mm 1 mps 734 mmHg 54%
    22:00 +19°C° 0 mm 1 mps 734 mmHg 56%
    23:00 +18°C° 0 mm 1 mps 734 mmHg 58%

    Day after tomorrow, 24 August, Saturday

    Time Temperature Precipitation Wind Pressure Humidity
    00:00 +18°C° 0 mm 1 mps 734 mmHg 59%
    01:00 +16°C° 0 mm 1 mps 734 mmHg 61%
    02:00 +15°C° 0 mm 0 mps 734 mmHg 62%
    03:00 +15°C° 0 mm 1 mps 734 mmHg 63%
    04:00 +15°C° 0 mm 1 mps 734 mmHg 63%
    05:00 +15°C° 0 mm 1 mps 734 mmHg 64%
    06:00 +17°C° 0 mm 2 mps 734 mmHg 59%
    07:00 +19°C° 0 mm 2 mps 734 mmHg 54%
    08:00 +20°C° 0 mm 2 mps 735 mmHg 49%
    09:00 +22°C° 0 mm 3 mps 735 mmHg 45%
    10:00 +23°C° 0 mm 4 mps 735 mmHg 41%
    11:00 +26°C° 0 mm 4 mps 735 mmHg 38%
    12:00 +26°C° 0 mm 4 mps 735 mmHg 36%
    13:00 +27°C° 0 mm 5 mps 734 mmHg 35%
    14:00 +28°C° 0 mm 5 mps 734 mmHg 34%
    15:00 +28°C° 0 mm 5 mps 734 mmHg 34%
    16:00 +27°C° 0 mm 4 mps 733 mmHg 35%
    17:00 +27°C° 0 mm 4 mps 733 mmHg 35%
    18:00 +26°C° 0 mm 3 mps 733 mmHg 40%
    19:00 +24°C° 0 mm 3 mps 733 mmHg 44%
    20:00 +21°C° 0 mm 2 mps 733 mmHg 48%
    21:00 +21°C° 0 mm 2 mps 733 mmHg 50%
    22:00 +20°C° 0 mm 2 mps 733 mmHg 52%
    23:00 +20°C° 0 mm 2 mps 733 mmHg 54%

    25 August, Sunday

    Time Temperature Precipitation Wind Pressure Humidity
    00:00 +19°C° 0 mm 2 mps 733 mmHg 60%
    01:00 +18°C° 0 mm 2 mps 732 mmHg 66%
    02:00 +18°C° 0 mm 2 mps 732 mmHg 72%
    03:00 +17°C° 0.1 mm 2 mps 732 mmHg 77%
    04:00 +16°C° 0.1 mm 2 mps 732 mmHg 83%
    05:00 +16°C° 0.1 mm 3 mps 732 mmHg 89%
    06:00 +17°C° 0.2 mm 3 mps 732 mmHg 82%
    07:00 +18°C° 0.2 mm 3 mps 733 mmHg 75%
    08:00 +19°C° 0.2 mm 3 mps 733 mmHg 68%
    09:00 +20°C° 0 mm 3 mps 733 mmHg 61%
    10:00 +21°C° 0 mm 3 mps 733 mmHg 55%
    11:00 +24°C° 0 mm 3 mps 733 mmHg 49%
    12:00 +25°C° 0 mm 3 mps 733 mmHg 44%
    13:00 +25°C° 0 mm 3 mps 733 mmHg 40%
    14:00 +26°C° 0 mm 3 mps 733 mmHg 36%
    15:00 +26°C° 0 mm 3 mps 733 mmHg 33%
    16:00 +26°C° 0 mm 3 mps 733 mmHg 31%
    17:00 +26°C° 0 mm 2 mps 733 mmHg 28%
    18:00 +24°C° 0 mm 2 mps 733 mmHg 31%
    19:00 +23°C° 0 mm 2 mps 733 mmHg 33%
    20:00 +20°C° 0 mm 2 mps 732 mmHg 36%
    21:00 +19°C° 0 mm 2 mps 732 mmHg 38%
    22:00 +18°C° 0 mm 2 mps 732 mmHg 39%
    23:00 +18°C° 0 mm 2 mps 732 mmHg 41%

    26 August, Monday

    Time Temperature Precipitation Wind Pressure Humidity
    00:00 +17°C° 0 mm 2 mps 732 mmHg 43%
    01:00 +17°C° 0 mm 2 mps 731 mmHg 45%
    02:00 +16°C° 0 mm 2 mps 731 mmHg 47%
    03:00 +16°C° 0 mm 2 mps 731 mmHg 53%
    04:00 +15°C° 0 mm 2 mps 731 mmHg 59%
    05:00 +15°C° 0 mm 2 mps 730 mmHg 65%
    06:00 +17°C° 0 mm 2 mps 730 mmHg 63%
    07:00 +19°C° 0 mm 2 mps 731 mmHg 60%
    08:00 +21°C° 0 mm 2 mps 731 mmHg 58%
    09:00 +23°C° 0 mm 2 mps 730 mmHg 50%
    10:00 +25°C° 0 mm 2 mps 730 mmHg 43%
    11:00 +27°C° 0 mm 2 mps 730 mmHg 35%
    12:00 +27°C° 0 mm 2 mps 730 mmHg 32%
    13:00 +28°C° 0 mm 2 mps 729 mmHg 29%
    14:00 +29°C° 0 mm 2 mps 729 mmHg 27%
    15:00 +29°C° 0 mm 2 mps 729 mmHg 26%
    16:00 +29°C° 0 mm 2 mps 728 mmHg 26%
    17:00 +29°C° 0 mm 1 mps 728 mmHg 25%
    18:00 +27°C° 0 mm 1 mps 727 mmHg 28%
    19:00 +25°C° 0 mm 2 mps 727 mmHg 31%
    20:00 +23°C° 0 mm 2 mps 727 mmHg 34%
    21:00 +23°C° 0 mm 2 mps 726 mmHg 35%
    22:00 +21°C° 0 mm 3 mps 726 mmHg 36%
    23:00 +21°C° 0 mm 3 mps 725 mmHg 36%

    27 August, Tuesday

    Time Temperature Precipitation Wind Pressure Humidity
    00:00 +20°C° 0 mm 3 mps 724 mmHg 40%
    01:00 +20°C° 0 mm 4 mps 724 mmHg 44%
    02:00 +19°C° 0 mm 4 mps 723 mmHg 48%
    03:00 +19°C° 0 mm 4 mps 722 mmHg 48%
    04:00 +19°C° 0 mm 4 mps 721 mmHg 47%
    05:00 +19°C° 0 mm 4 mps 721 mmHg 47%
    06:00 +21°C° 0 mm 5 mps 721 mmHg 43%
    07:00 +23°C° 0 mm 6 mps 720 mmHg 39%
    08:00 +26°C° 0 mm 7 mps 720 mmHg 35%
    09:00 +27°C° 0 mm 7 mps 720 mmHg 33%
    10:00 +28°C° 0 mm 7 mps 721 mmHg 31%
    11:00 +29°C° 0 mm 7 mps 721 mmHg 30%
    12:00 +27°C° 0 mm 7 mps 721 mmHg 37%
    13:00 +24°C° 0 mm 7 mps 721 mmHg 44%
    14:00 +22°C° 0 mm 6 mps 721 mmHg 52%
    15:00 +21°C° 0.3 mm 6 mps 722 mmHg 56%
    16:00 +20°C° 0.3 mm 5 mps 722 mmHg 60%
    17:00 +19°C° 0.3 mm 5 mps 722 mmHg 65%
    18:00 +17°C° 0.1 mm 5 mps 723 mmHg 65%
    19:00 +16°C° 0.1 mm 5 mps 723 mmHg 64%
    20:00 +15°C° 0.1 mm 4 mps 723 mmHg 64%
    21:00 +14°C° 0 mm 5 mps 724 mmHg 68%
    22:00 +11°C° 0 mm 6 mps 724 mmHg 71%
    23:00 +10°C° 0 mm 6 mps 724 mmHg 74%
    Show more